User: anonymous   Login
Location: Rio Tanui
(39.9167°N, 8.5167°E)
Time: 19:46:00
(UTC+00:00)
Language:

Meteor 2-2 Rocket - Orbit

View from above orbital plane
View from above orbital plane
View from above satellite
View from above satellite

Ground track
Ground track

The orbit data is extracted from the following two-line orbital elements,

1  9662U 77002B   24141.54633612  .00000184  00000-0  11324-3 0  9998
2  9662  81.2748 176.9065 0051576 213.4947 146.2955 14.01115223420786
Epoch (UTC): 20 May 2024 13:06:43
Eccentricity: 0.0051576
inclination: 81.2748°
perigee height: 852 km
apogee height: 927 km
right ascension of ascending node: 176.9065°
argument of perigee: 213.4947°
revolutions per day: 14.01115223
mean anomaly at epoch: 146.2955°
orbit number at epoch: 42078

The dashed part of the orbit path shows where the satellite is in the earth's shadow,  

DLR